Location: New Plymouth
(39.0670°S, 174.0830°E)
Time: 19:37:21
(UTC+13:00)

Cosmos 1844 Rocket - Pass Details

Date: 24 January 2019
Orbit: 824 x 845 km, 71.0° (Epoch: 16 February)

Event Time Altitude Azimuth Distance (km) Brightness Sun altitude
Rises 22:53:07 0° 197° (SSW) 3,407 7.0 -20.4°
Reaches altitude 10° 22:55:43 10° 189° (S) 2,470 5.9 -20.7°
Maximum altitude 23:01:03 40° 119° (ESE) 1,219 3.4 -21.4°
Enters shadow 23:02:32 34° 84° (E) 1,359 3.4 -21.6°
